Regional Weather Roundup
Issued by NWS Mobile, AL

Home | Current Version | Previous Version | Text Only | Print | Product List | Glossary On
Versions: 1 2 3 4 5 6 7 8 9 10 11 12 13 14 15 16 17 18 19 20 21 22 23 24 25 26 27 28 29 30 31 32 33 34 35 36 37 38 39 40 41 42 43 44 45 46 47 48 49 50
000
ASUS44 KMOB 041316
RWRMOB
REGIONAL WEATHER ROUNDUP
NATIONAL WEATHER SERVICE MOBILE AL
800 AM CDT FRI SEP 04 2015

ALZ061>064-041400-
COASTAL ALABAMA


CITY           SKY/WX    TMP DP  RH WIND       PRES   REMARKS
MOBILE REG APT MOSUNNY   77  75  93 N6        30.02R
BROOKLEY FIELD MOSUNNY   79  75  87 N5        30.02R
GULF SHORES    SUNNY     77  76  96 N5        30.00S

$$

ALZ051>060-041400-
INTERIOR SOUTHWEST AND SOUTH CENTRAL ALABAMA


CITY           SKY/WX    TMP DP  RH WIND       PRES   REMARKS
ANDALUSIA/OPP  SUNNY     80  73  79 CALM      30.01R
EVERGREEN      PTSUNNY   74  72  93 CALM      30.03R FOG
FLORALA        MOSUNNY   74  71  91 CALM      30.03R
GREENVILLE     FAIR      77  72  84 NW3       30.01S

$$

FLZ001>006-041400-
WESTERN FLORIDA PANHANDLE


CITY           SKY/WX    TMP DP  RH WIND       PRES   REMARKS
CRESTVIEW      MOSUNNY   74  73  97 CALM      30.03R FOG
DESTIN         SUNNY     80  75  84 N7        30.01R
DUKE FIELD     FAIR      73  72  95 CALM      30.01R
MARY ESTHER    SUNNY     75  72  91 N5        30.00R
MILTON         MOSUNNY   79  74  84 CALM      30.02R
PENSACOLA      SUNNY     78  74  87 N6        30.01R
NAS PENSACOLA  MOSUNNY   77  75  93 N5        30.00R
VALPARAISO     MOSUNNY   78  73  84 N5        30.01R

$$

...MARINE OBSERVATIONS...

STATION/POSITION TIME  SKY/WX   TEMP    WIND        PRES    VSBY
                                AIR SEA DIR/SP/G
                 (UTC)          (F)     (DEG/KT/KT) (MB)    (MI)
PASCAGOULA       1200            79     340/  5/  6 1015.4R
PETIT BOIS ISL   1200            82     260/  6/  7 1016.1R
E DAUPHIN ISLAND 1300            82     340/  5/  6 1015.7R
MIDDLE BAY LIGHT 1200            80     340/  5     1014.9R
USCG MOBILE BAY  1200            76 86  330/  2/  3 1014.9R
STATE DOCKS      1200            77 84              1015.5R
MEAHER PARK      1300            78     360/  4     1015.6S
FORT MORGAN      1200            82     300/  4/  5 1015.0R
12 S ORANGE BCH  1250            83 85  290/  2/  4 1015.3R
WVE H/P(F/S)=  1/ 4

PENSACOLA BAY    1200            77 86  360/  4/  6 1015.9R
64 S DAUPHIN ISL 1250            82 84  250/  6/  8 1016.0R
WVE H/P(F/S)=  1/ 4

115 SE PENSACOLA 1250            83 86  340/  6/  8 1016.2R
WVE H/P(F/S)=  1/ 4

MID GULF/42001   1300            85 86  140/  6/  8 1015.8R
EAST GULF/42003  1250            85 87   CALM  /  2 1015.2R
WVE H/P(F/S)=  1/ 6


$$

...NEARBY LOCATIONS

CITY           SKY/WX    TMP DP  RH WIND       PRES   REMARKS
GULFPORT       PTSUNNY   78  74  87 N3        29.99R
BILOXI         MOSUNNY   78  76  91 N3        30.00R
PASCAGOULA     MOSUNNY   75  74  96 N3        30.01R
HATTIESBURG    FOG       73  72  96 CALM      30.02R VSB 3/4
LAUREL         CLOUDY    73  54  49 CALM      30.03R
MERIDIAN       SUNNY     74  72  93 CALM      30.02R
MERIDIAN NAS   SUNNY     75  72  90 W3        30.02R
MONTGOMERY     SUNNY     76  71  85 CALM      30.02R
MAXWELL AFB    SUNNY     75  72  89 VRB1      30.01R
TROY           SUNNY     76  72  87 NW3       30.03R
FORT RUCKER    SUNNY     75  72  90 CALM      30.00R FOG
DALEVILLE      SUNNY     75  72  91 NW3       30.00R
DOTHAN         SUNNY     76  72  87 N5        30.04R

$$

...OTHER SURROUNDING LOCATIONS...

CITY           SKY/WX    TMP DP  RH WIND       PRES   REMARKS
BIRMINGHAM     SUNNY     76  72  87 CALM      30.06R
TUSCALOOSA     SUNNY     74  71  91 CALM      30.02R FOG
COLUMBUS GA    SUNNY     76  69  79 CALM      30.00R
PANAMA CITY    NOT AVBL
TALLAHASSEE    MOSUNNY   78  73  84 NW3       30.00R
BATON ROUGE    SUNNY     77  75  93 CALM      29.99R
NEW ORLEANS    PTSUNNY   81  74  79 E5        29.99R
SLIDELL        PTSUNNY   76  75  97 CALM      29.99R
JACKSON        SUNNY     75  72  90 S3        30.01R
MCCOMB         FOG       74  74 100 CALM      30.01R VSB 1/4

$$

...SURROUNDING MARINE OBSERVATIONS...

STATION/POSITION TIME  SKY/WX   TEMP    WIND        PRES    VSBY
                                AIR SEA DIR/SP/G
                 (UTC)          (F)     (DEG/KT/KT) (MB)    (MI)
WAVELAND         1200            78 85   CALM  /  1 1015.9R
PASCAGOULA RGN A 1200            78      10/  4/  4 1015.1R
PASCAGOULA PORT  1200               85                N/A
GRAND ISLE       1200            80 84   CALM  /  2 1015.3R
SOUTHWEST PASS   1300                                 N/A
PILOT STATION E  1200            79 85  190/ 10/ 18 1015.8R
SHELL BEACH      1200            80 84  120/  2/  3 1014.8R
PANAMA CITY      1200            79 85  340/  6/  8 1015.2R
APALACHICOLA     1200            78 86  340/  3/  5 1015.4R
TYNDALL TOWER C  1300            81     350/ 12/ 12 1015.4R
S APLCHCLA/42036 1250            84 86  320/  8/ 10 1015.6R
WVE H/P(F/S)=  1/ 5


$$



USA.gov is the U.S. government's official web portal to all federal, state and local government web resources and services.